Year,Month,Day,Hour,Minute,Value (Times are PST for temperature in C)
2016,04,19,00,00,14.50
2016,04,19,00,01,14.60
2016,04,19,00,02,14.60
2016,04,19,00,03,14.60
2016,04,19,00,04,14.60
2016,04,19,00,05,14.60
2016,04,19,00,06,14.60
2016,04,19,00,07,14.70
2016,04,19,00,08,14.70
2016,04,19,00,09,14.70
2016,04,19,00,10,14.70
2016,04,19,00,11,14.70
2016,04,19,00,12,14.70
2016,04,19,00,13,14.70
2016,04,19,00,14,14.70
2016,04,19,00,15,14.70
2016,04,19,00,16,14.70
2016,04,19,00,17,14.80
2016,04,19,00,18,14.80
2016,04,19,00,19,14.80
2016,04,19,00,20,14.80
2016,04,19,00,21,14.80
2016,04,19,00,22,14.80
2016,04,19,00,23,14.80
2016,04,19,00,24,14.80
2016,04,19,00,25,14.80
2016,04,19,00,26,14.90
2016,04,19,00,27,14.90
2016,04,19,00,28,14.90
2016,04,19,00,29,14.90
2016,04,19,00,30,14.90
2016,04,19,00,31,15.00
2016,04,19,00,32,15.00
2016,04,19,00,33,15.10
2016,04,19,00,34,15.10
2016,04,19,00,35,15.10
2016,04,19,00,36,15.20
2016,04,19,00,37,15.30
2016,04,19,00,38,15.30
2016,04,19,00,39,15.30
2016,04,19,00,40,15.30
2016,04,19,00,41,15.30
2016,04,19,00,42,15.30
2016,04,19,00,43,15.30
2016,04,19,00,44,15.30
2016,04,19,00,45,15.30
2016,04,19,00,46,15.30
2016,04,19,00,47,15.30
2016,04,19,00,48,15.30
2016,04,19,00,49,15.30
2016,04,19,00,50,15.30
2016,04,19,00,51,15.30
2016,04,19,00,52,15.30
2016,04,19,00,53,15.30
2016,04,19,00,54,15.30
2016,04,19,00,55,15.30
2016,04,19,00,56,15.30
2016,04,19,00,57,15.30
2016,04,19,00,58,15.40
2016,04,19,00,59,15.30
2016,04,19,01,00,15.40
2016,04,19,01,01,15.40
2016,04,19,01,02,15.40
2016,04,19,01,03,15.40
2016,04,19,01,04,15.40
2016,04,19,01,05,15.50
2016,04,19,01,06,15.50
2016,04,19,01,07,15.50
2016,04,19,01,08,15.50
2016,04,19,01,09,15.50
2016,04,19,01,10,15.50
2016,04,19,01,11,15.50
2016,04,19,01,12,15.50
2016,04,19,01,13,15.50
2016,04,19,01,14,15.50
2016,04,19,01,15,15.40
2016,04,19,01,16,15.40
2016,04,19,01,17,15.50
2016,04,19,01,18,15.50
2016,04,19,01,19,15.50
2016,04,19,01,20,15.50
2016,04,19,01,21,15.60
2016,04,19,01,22,15.60
2016,04,19,01,23,15.50
2016,04,19,01,24,15.50
2016,04,19,01,25,15.50
2016,04,19,01,26,15.50
2016,04,19,01,27,15.50
2016,04,19,01,28,15.50
2016,04,19,01,29,15.40
2016,04,19,01,30,15.40
2016,04,19,01,31,15.40
2016,04,19,01,32,15.40
2016,04,19,01,33,15.40
2016,04,19,01,34,15.40
2016,04,19,01,35,15.40
2016,04,19,01,36,15.40
2016,04,19,01,37,15.40
2016,04,19,01,38,15.40
2016,04,19,01,39,15.40
2016,04,19,01,40,15.40
2016,04,19,01,41,15.40
2016,04,19,01,42,15.40
2016,04,19,01,43,15.40
2016,04,19,01,44,15.30
2016,04,19,01,45,15.30
2016,04,19,01,46,15.30
2016,04,19,01,47,15.30
2016,04,19,01,48,15.30
2016,04,19,01,49,15.30
2016,04,19,01,50,15.30
2016,04,19,01,51,15.30
2016,04,19,01,52,15.30
2016,04,19,01,53,15.20
2016,04,19,01,54,15.20
2016,04,19,01,55,15.20
2016,04,19,01,56,15.20
2016,04,19,01,57,15.20
2016,04,19,01,58,15.20
2016,04,19,01,59,15.10
2016,04,19,02,00,15.10
2016,04,19,02,01,15.10
2016,04,19,02,02,15.10
2016,04,19,02,03,15.10
2016,04,19,02,04,15.10
2016,04,19,02,05,15.10
2016,04,19,02,06,15.10
2016,04,19,02,07,15.10
2016,04,19,02,08,15.10
2016,04,19,02,09,15.10
2016,04,19,02,10,15.10
2016,04,19,02,11,15.10
2016,04,19,02,12,15.10
2016,04,19,02,13,15.10
2016,04,19,02,14,15.10
2016,04,19,02,15,15.00
2016,04,19,02,16,15.10
2016,04,19,02,17,15.00
2016,04,19,02,18,15.00
2016,04,19,02,19,15.00
2016,04,19,02,20,15.00
2016,04,19,02,21,14.90
2016,04,19,02,22,14.90
2016,04,19,02,23,14.90
2016,04,19,02,24,14.90
2016,04,19,02,25,14.90
2016,04,19,02,26,14.90
2016,04,19,02,27,14.80
2016,04,19,02,28,14.80
2016,04,19,02,29,14.80
2016,04,19,02,30,14.80
2016,04,19,02,31,14.80
2016,04,19,02,32,14.80
2016,04,19,02,33,14.80
2016,04,19,02,34,14.70
2016,04,19,02,35,14.70
2016,04,19,02,36,14.70
2016,04,19,02,37,14.70
2016,04,19,02,38,14.70
2016,04,19,02,39,14.70
2016,04,19,02,40,14.70
2016,04,19,02,41,14.70
2016,04,19,02,42,14.60
2016,04,19,02,43,14.60
2016,04,19,02,44,14.60
2016,04,19,02,45,14.60
2016,04,19,02,46,14.60
2016,04,19,02,47,14.60
2016,04,19,02,48,14.60
2016,04,19,02,49,14.60
2016,04,19,02,50,14.50
2016,04,19,02,51,14.50
2016,04,19,02,52,14.50
2016,04,19,02,53,14.50
2016,04,19,02,54,14.40
2016,04,19,02,55,14.40
2016,04,19,02,56,14.40
2016,04,19,02,57,14.30
2016,04,19,02,58,14.30
2016,04,19,02,59,14.30
2016,04,19,03,00,14.20
2016,04,19,03,01,14.20
2016,04,19,03,02,14.20
2016,04,19,03,03,14.10
2016,04,19,03,04,14.10
2016,04,19,03,05,14.10
2016,04,19,03,06,14.00
2016,04,19,03,07,14.00
2016,04,19,03,08,13.90
2016,04,19,03,09,13.90
2016,04,19,03,10,13.90
2016,04,19,03,11,13.80
2016,04,19,03,12,13.80
2016,04,19,03,13,13.80
2016,04,19,03,14,13.80
2016,04,19,03,15,13.70
2016,04,19,03,16,13.70
2016,04,19,03,17,13.70
2016,04,19,03,18,13.70
2016,04,19,03,19,13.70
2016,04,19,03,20,13.70
2016,04,19,03,21,13.70
2016,04,19,03,22,13.60
2016,04,19,03,23,13.60
2016,04,19,03,24,13.60
2016,04,19,03,25,13.50
2016,04,19,03,26,13.50
2016,04,19,03,27,13.40
2016,04,19,03,28,13.40
2016,04,19,03,29,13.30
2016,04,19,03,30,13.30
2016,04,19,03,31,13.20
2016,04,19,03,32,13.20
2016,04,19,03,33,13.10
2016,04,19,03,34,13.10
2016,04,19,03,35,13.00
2016,04,19,03,36,13.00
2016,04,19,03,37,12.90
2016,04,19,03,38,12.90
2016,04,19,03,39,12.80
2016,04,19,03,40,12.80
2016,04,19,03,41,12.80
2016,04,19,03,42,12.70
2016,04,19,03,43,12.70
2016,04,19,03,44,12.70
2016,04,19,03,45,12.70
2016,04,19,03,46,12.70
2016,04,19,03,47,12.70
2016,04,19,03,48,12.70
2016,04,19,03,49,12.60
2016,04,19,03,50,12.60
2016,04,19,03,51,12.60
2016,04,19,03,52,12.50
2016,04,19,03,53,12.50
2016,04,19,03,54,12.50
2016,04,19,03,55,12.40
2016,04,19,03,56,12.40
2016,04,19,03,57,12.30
2016,04,19,03,58,12.30
2016,04,19,03,59,12.30
2016,04,19,04,00,12.20
2016,04,19,04,01,12.20
2016,04,19,04,02,12.20
2016,04,19,04,03,12.10
2016,04,19,04,04,12.10
2016,04,19,04,05,12.10
2016,04,19,04,06,12.10
2016,04,19,04,07,12.10
2016,04,19,04,08,12.10
2016,04,19,04,09,12.10
2016,04,19,04,10,12.10
2016,04,19,04,11,12.10
2016,04,19,04,12,12.20
2016,04,19,04,13,12.20
2016,04,19,04,14,12.30
2016,04,19,04,15,12.40
2016,04,19,04,16,12.40
2016,04,19,04,17,12.40
2016,04,19,04,18,12.40
2016,04,19,04,19,12.50
2016,04,19,04,20,12.50
2016,04,19,04,21,12.50
2016,04,19,04,22,12.50
2016,04,19,04,23,12.40
2016,04,19,04,24,12.40
2016,04,19,04,25,12.40
2016,04,19,04,26,12.40
2016,04,19,04,27,12.40
2016,04,19,04,28,12.40
2016,04,19,04,29,12.40
2016,04,19,04,30,12.40
2016,04,19,04,31,12.40
2016,04,19,04,32,12.40
2016,04,19,04,33,12.40
2016,04,19,04,34,12.50
2016,04,19,04,35,12.50
2016,04,19,04,36,12.50
2016,04,19,04,37,12.50
2016,04,19,04,38,12.50
2016,04,19,04,39,12.50
2016,04,19,04,40,12.40
2016,04,19,04,41,12.40
2016,04,19,04,42,12.40
2016,04,19,04,43,12.30
2016,04,19,04,44,12.30
2016,04,19,04,45,12.30
2016,04,19,04,46,12.20
2016,04,19,04,47,12.20
2016,04,19,04,48,12.20
2016,04,19,04,49,12.10
2016,04,19,04,50,12.10
2016,04,19,04,51,12.00
2016,04,19,04,52,12.00
2016,04,19,04,53,11.90
2016,04,19,04,54,11.90
2016,04,19,04,55,11.80
2016,04,19,04,56,11.80
2016,04,19,04,57,11.80
2016,04,19,04,58,11.80
2016,04,19,04,59,11.80
2016,04,19,05,00,11.70
2016,04,19,05,01,11.70
2016,04,19,05,02,11.70
2016,04,19,05,03,11.70
2016,04,19,05,04,11.70
2016,04,19,05,05,11.70
2016,04,19,05,06,11.70
2016,04,19,05,07,11.70
2016,04,19,05,08,11.70
2016,04,19,05,09,11.70
2016,04,19,05,10,11.70
2016,04,19,05,11,11.80
2016,04,19,05,12,11.80
2016,04,19,05,13,11.80
2016,04,19,05,14,11.80
2016,04,19,05,15,11.90
2016,04,19,05,16,11.90
2016,04,19,05,17,11.90
2016,04,19,05,18,11.90
2016,04,19,05,19,11.90
2016,04,19,05,20,11.90
2016,04,19,05,21,11.90
2016,04,19,05,22,11.90
2016,04,19,05,23,11.90
2016,04,19,05,24,11.90
2016,04,19,05,25,11.90
2016,04,19,05,26,11.80
2016,04,19,05,27,11.80
2016,04,19,05,28,11.80
2016,04,19,05,29,11.80
2016,04,19,05,30,11.80
2016,04,19,05,31,11.80
2016,04,19,05,32,11.70
2016,04,19,05,33,11.70
2016,04,19,05,34,11.70
2016,04,19,05,35,11.70
2016,04,19,05,36,11.70
2016,04,19,05,37,11.70
2016,04,19,05,38,11.70
2016,04,19,05,39,11.70
2016,04,19,05,40,11.70
2016,04,19,05,41,11.80
2016,04,19,05,42,11.80
2016,04,19,05,43,11.80
2016,04,19,05,44,11.80
2016,04,19,05,45,11.80
2016,04,19,05,46,11.80
2016,04,19,05,47,11.80
2016,04,19,05,48,11.80
2016,04,19,05,49,11.80
2016,04,19,05,50,11.80
2016,04,19,05,51,11.80
2016,04,19,05,52,11.80
2016,04,19,05,53,11.90
2016,04,19,05,54,11.90
2016,04,19,05,55,11.90
2016,04,19,05,56,11.90
2016,04,19,05,57,11.90
2016,04,19,05,58,11.90
2016,04,19,05,59,11.90
2016,04,19,06,00,11.90
2016,04,19,06,01,11.90
2016,04,19,06,02,11.90
2016,04,19,06,03,11.90
2016,04,19,06,04,11.90
2016,04,19,06,05,11.90
2016,04,19,06,06,11.90
2016,04,19,06,07,11.90
2016,04,19,06,08,11.90
2016,04,19,06,09,11.90
2016,04,19,06,10,11.90
2016,04,19,06,11,11.90
2016,04,19,06,12,12.00
2016,04,19,06,13,12.00
2016,04,19,06,14,12.00
2016,04,19,06,15,12.00
2016,04,19,06,16,12.00
2016,04,19,06,17,12.10
2016,04,19,06,18,12.10
2016,04,19,06,19,12.00
2016,04,19,06,20,12.10
2016,04,19,06,21,12.10
2016,04,19,06,22,12.10
2016,04,19,06,23,12.00
2016,04,19,06,24,12.00
2016,04,19,06,25,12.00
2016,04,19,06,26,12.00
2016,04,19,06,27,12.00
2016,04,19,06,28,12.00
2016,04,19,06,29,12.00
2016,04,19,06,30,12.00
2016,04,19,06,31,12.00
2016,04,19,06,32,12.00
2016,04,19,06,33,12.00
2016,04,19,06,34,12.00
2016,04,19,06,35,11.90
2016,04,19,06,36,11.90
2016,04,19,06,37,11.90
2016,04,19,06,38,11.90
2016,04,19,06,39,11.90
2016,04,19,06,40,11.90
2016,04,19,06,41,11.90
2016,04,19,06,42,11.90
2016,04,19,06,43,11.90
2016,04,19,06,44,11.90
2016,04,19,06,45,11.90
2016,04,19,06,46,11.90
2016,04,19,06,47,11.90
2016,04,19,06,48,11.90
2016,04,19,06,49,11.90
2016,04,19,06,50,11.90
2016,04,19,06,51,11.90
2016,04,19,06,52,11.90
2016,04,19,06,53,11.90
2016,04,19,06,54,11.90
2016,04,19,06,55,11.90
2016,04,19,06,56,11.90
2016,04,19,06,57,11.90
2016,04,19,06,58,12.00
2016,04,19,06,59,12.00
2016,04,19,07,00,12.00
2016,04,19,07,01,12.00
2016,04,19,07,02,12.00
2016,04,19,07,03,12.00
2016,04,19,07,04,12.00
2016,04,19,07,05,12.00
2016,04,19,07,06,12.00
2016,04,19,07,07,12.00
2016,04,19,07,08,12.00
2016,04,19,07,09,12.00
2016,04,19,07,10,12.00
2016,04,19,07,11,12.00
2016,04,19,07,12,12.00
2016,04,19,07,13,12.00
2016,04,19,07,14,12.00
2016,04,19,07,15,12.00
2016,04,19,07,16,12.00
2016,04,19,07,17,12.00
2016,04,19,07,18,12.00
2016,04,19,07,19,12.00
2016,04,19,07,20,12.10
2016,04,19,07,21,12.10
2016,04,19,07,22,12.10
2016,04,19,07,23,12.10
2016,04,19,07,24,12.20
2016,04,19,07,25,12.20
2016,04,19,07,26,12.20
2016,04,19,07,27,12.20
2016,04,19,07,28,12.30
2016,04,19,07,29,12.30
2016,04,19,07,30,12.30
2016,04,19,07,31,12.30
2016,04,19,07,32,12.40
2016,04,19,07,33,12.40
2016,04,19,07,34,12.40
2016,04,19,07,35,12.50
2016,04,19,07,36,12.50
2016,04,19,07,37,12.50
2016,04,19,07,38,12.60
2016,04,19,07,39,12.60
2016,04,19,07,40,12.60
2016,04,19,07,41,12.70
2016,04,19,07,42,12.70
2016,04,19,07,43,12.70
2016,04,19,07,44,12.70
2016,04,19,07,45,12.80
2016,04,19,07,46,12.80
2016,04,19,07,47,12.80
2016,04,19,07,48,12.90
2016,04,19,07,49,12.90
2016,04,19,07,50,13.00
2016,04,19,07,51,13.00
2016,04,19,07,52,13.10
2016,04,19,07,53,13.10
2016,04,19,07,54,13.10
2016,04,19,07,55,13.20
2016,04,19,07,56,13.20
2016,04,19,07,57,13.20
2016,04,19,07,58,13.20
2016,04,19,07,59,13.30
2016,04,19,08,00,13.30
2016,04,19,08,01,13.30
2016,04,19,08,02,13.40
2016,04,19,08,03,13.40
2016,04,19,08,04,13.40
2016,04,19,08,05,13.50
2016,04,19,08,06,13.50
2016,04,19,08,07,13.60
2016,04,19,08,08,13.60
2016,04,19,08,09,13.60
2016,04,19,08,10,13.70
2016,04,19,08,11,13.70
2016,04,19,08,12,13.70
2016,04,19,08,13,13.70
2016,04,19,08,14,13.80
2016,04,19,08,15,13.80
2016,04,19,08,16,13.80
2016,04,19,08,17,13.80
2016,04,19,08,18,13.80
2016,04,19,08,19,13.90
2016,04,19,08,20,13.90
2016,04,19,08,21,13.90
2016,04,19,08,22,13.90
2016,04,19,08,23,14.00
2016,04,19,08,24,14.00
2016,04,19,08,25,14.00
2016,04,19,08,26,14.10
2016,04,19,08,27,14.10
2016,04,19,08,28,14.10
2016,04,19,08,29,14.10
2016,04,19,08,30,14.10
2016,04,19,08,31,14.10
2016,04,19,08,32,14.20
2016,04,19,08,33,14.20
2016,04,19,08,34,14.20
2016,04,19,08,35,14.20
2016,04,19,08,36,14.30
2016,04,19,08,37,14.30
2016,04,19,08,38,14.30
2016,04,19,08,39,14.30
2016,04,19,08,40,14.40
2016,04,19,08,41,14.40
2016,04,19,08,42,14.40
2016,04,19,08,43,14.40
2016,04,19,08,44,14.50
2016,04,19,08,45,14.50
2016,04,19,08,46,14.50
2016,04,19,08,47,14.50
2016,04,19,08,48,14.50
2016,04,19,08,49,14.50
2016,04,19,08,50,14.40
2016,04,19,08,51,14.40
2016,04,19,08,52,14.40
2016,04,19,08,53,14.50
2016,04,19,08,54,14.50
2016,04,19,08,55,14.60
2016,04,19,08,56,14.60
2016,04,19,08,57,14.60
2016,04,19,08,58,14.60
2016,04,19,08,59,14.60
2016,04,19,09,00,14.70
2016,04,19,09,01,14.70
2016,04,19,09,02,14.70
2016,04,19,09,03,14.70
2016,04,19,09,04,14.70
2016,04,19,09,05,14.70
2016,04,19,09,06,14.80
2016,04,19,09,07,14.70
2016,04,19,09,08,14.70
2016,04,19,09,09,14.70
2016,04,19,09,10,14.70
2016,04,19,09,11,14.70
2016,04,19,09,12,14.70
2016,04,19,09,13,14.70
2016,04,19,09,14,14.60
2016,04,19,09,15,14.60
2016,04,19,09,16,14.60
2016,04,19,09,17,14.50
2016,04,19,09,18,14.50
2016,04,19,09,19,14.60
2016,04,19,09,20,14.60
2016,04,19,09,21,14.50
2016,04,19,09,22,14.50
2016,04,19,09,23,14.50
2016,04,19,09,24,14.40
2016,04,19,09,25,14.40
2016,04,19,09,26,14.40
2016,04,19,09,27,14.40
2016,04,19,09,28,14.40
2016,04,19,09,29,14.40
2016,04,19,09,30,14.40
2016,04,19,09,31,14.40
2016,04,19,09,32,14.40
2016,04,19,09,33,14.30
2016,04,19,09,34,14.30
2016,04,19,09,35,14.30
2016,04,19,09,36,14.30
2016,04,19,09,37,14.40
2016,04,19,09,38,14.40
2016,04,19,09,39,14.40
2016,04,19,09,40,14.40
2016,04,19,09,41,14.40
2016,04,19,09,42,14.40
2016,04,19,09,43,14.50
2016,04,19,09,44,14.50
2016,04,19,09,45,14.50
2016,04,19,09,46,14.60
2016,04,19,09,47,14.60
2016,04,19,09,48,14.60
2016,04,19,09,49,14.70
2016,04,19,09,50,14.70
2016,04,19,09,51,14.70
2016,04,19,09,52,14.80
2016,04,19,09,53,14.80
2016,04,19,09,54,14.90
2016,04,19,09,55,15.00
2016,04,19,09,56,15.00
2016,04,19,09,57,15.10
2016,04,19,09,58,15.10
2016,04,19,09,59,15.20
2016,04,19,10,00,15.20
2016,04,19,10,01,15.30
2016,04,19,10,02,15.30
2016,04,19,10,03,15.40
2016,04,19,10,04,15.40
2016,04,19,10,05,15.50
2016,04,19,10,06,15.50
2016,04,19,10,07,15.50
2016,04,19,10,08,15.60
2016,04,19,10,09,15.60
2016,04,19,10,10,15.60
2016,04,19,10,11,15.60
2016,04,19,10,12,15.70
2016,04,19,10,13,15.70
2016,04,19,10,14,15.80
2016,04,19,10,15,15.80
2016,04,19,10,16,15.90
2016,04,19,10,17,15.90
2016,04,19,10,18,15.90
2016,04,19,10,19,15.90
2016,04,19,10,20,15.90
2016,04,19,10,21,16.00
2016,04,19,10,22,16.00
2016,04,19,10,23,16.00
2016,04,19,10,24,16.10
2016,04,19,10,25,16.10
2016,04,19,10,26,16.10
2016,04,19,10,27,16.10
2016,04,19,10,28,16.10
2016,04,19,10,29,16.10
2016,04,19,10,30,16.00
2016,04,19,10,31,16.00
2016,04,19,10,32,15.90
2016,04,19,10,33,15.90
2016,04,19,10,34,15.90
2016,04,19,10,35,15.90
2016,04,19,10,36,15.90
2016,04,19,10,37,15.90
2016,04,19,10,38,15.90
2016,04,19,10,39,15.90
2016,04,19,10,40,15.90
2016,04,19,10,41,15.80
2016,04,19,10,42,15.80
2016,04,19,10,43,15.80
2016,04,19,10,44,15.70
2016,04,19,10,45,15.70
2016,04,19,10,46,15.70
2016,04,19,10,47,15.70
2016,04,19,10,48,15.60
2016,04,19,10,49,15.50
2016,04,19,10,50,15.50
2016,04,19,10,51,15.40
2016,04,19,10,52,15.40
2016,04,19,10,53,15.40
2016,04,19,10,54,15.50
2016,04,19,10,55,15.60
2016,04,19,10,56,15.60
2016,04,19,10,57,15.70
2016,04,19,10,58,15.70
2016,04,19,10,59,15.80
2016,04,19,11,00,15.80
2016,04,19,11,01,15.80
2016,04,19,11,02,15.80
2016,04,19,11,03,15.80
2016,04,19,11,04,15.80
2016,04,19,11,05,15.80
2016,04,19,11,06,15.80
2016,04,19,11,07,15.90
2016,04,19,11,08,15.90
2016,04,19,11,09,16.00
2016,04,19,11,10,16.00
2016,04,19,11,11,16.10
2016,04,19,11,12,16.20
2016,04,19,11,13,16.20
2016,04,19,11,14,16.20
2016,04,19,11,15,16.20
2016,04,19,11,16,16.20
2016,04,19,11,17,16.20
2016,04,19,11,18,16.10
2016,04,19,11,19,16.10
2016,04,19,11,20,16.00
2016,04,19,11,21,16.00
2016,04,19,11,22,15.90
2016,04,19,11,23,15.80
2016,04,19,11,24,15.70
2016,04,19,11,25,15.70
2016,04,19,11,26,15.70
2016,04,19,11,27,15.70
2016,04,19,11,28,15.70
2016,04,19,11,29,15.70
2016,04,19,11,30,15.70
2016,04,19,11,31,15.80
2016,04,19,11,32,15.80
2016,04,19,11,33,15.80
2016,04,19,11,34,15.80
2016,04,19,11,35,15.80
2016,04,19,11,36,15.70
2016,04,19,11,37,15.70
2016,04,19,11,38,15.70
2016,04,19,11,39,15.70
2016,04,19,11,40,15.70
2016,04,19,11,41,15.70
2016,04,19,11,42,15.80
2016,04,19,11,43,15.90
2016,04,19,11,44,16.00
2016,04,19,11,45,16.00
2016,04,19,11,46,16.10
2016,04,19,11,47,16.00
2016,04,19,11,48,16.00
2016,04,19,11,49,16.00
2016,04,19,11,50,16.00
2016,04,19,11,51,15.90
2016,04,19,11,52,15.90
2016,04,19,11,53,15.90
2016,04,19,11,54,16.00
2016,04,19,11,55,16.00
2016,04,19,11,56,16.10
2016,04,19,11,57,16.20
2016,04,19,11,58,16.30
2016,04,19,11,59,16.30
2016,04,19,12,00,16.50
2016,04,19,12,01,16.50
2016,04,19,12,02,16.60
2016,04,19,12,03,16.60
2016,04,19,12,04,16.70
2016,04,19,12,05,16.70
2016,04,19,12,06,16.70
2016,04,19,12,07,16.80
2016,04,19,12,08,16.80
2016,04,19,12,09,16.80
2016,04,19,12,10,16.90
2016,04,19,12,11,16.90
2016,04,19,12,12,17.00
2016,04,19,12,13,17.10
2016,04,19,12,14,17.20
2016,04,19,12,15,17.30
2016,04,19,12,16,17.30
2016,04,19,12,17,17.30
2016,04,19,12,18,17.30
2016,04,19,12,19,17.40
2016,04,19,12,20,17.50
2016,04,19,12,21,17.60
2016,04,19,12,22,17.70
2016,04,19,12,23,17.70
2016,04,19,12,24,17.70
2016,04,19,12,25,17.70
2016,04,19,12,26,17.80
2016,04,19,12,27,17.80
2016,04,19,12,28,17.80
2016,04,19,12,29,17.80
2016,04,19,12,30,17.90
2016,04,19,12,31,17.90
2016,04,19,12,32,17.80
2016,04,19,12,33,17.80
2016,04,19,12,34,17.80
2016,04,19,12,35,17.70
2016,04,19,12,36,17.70
2016,04,19,12,37,17.70
2016,04,19,12,38,17.70
2016,04,19,12,39,17.70
2016,04,19,12,40,17.80
2016,04,19,12,41,17.80
2016,04,19,12,42,17.80
2016,04,19,12,43,17.90
2016,04,19,12,44,17.90
2016,04,19,12,45,17.90
2016,04,19,12,46,18.00
2016,04,19,12,47,18.00
2016,04,19,12,48,17.90
2016,04,19,12,49,17.90
2016,04,19,12,50,17.90
2016,04,19,12,51,17.80
2016,04,19,12,52,17.80
2016,04,19,12,53,17.80
2016,04,19,12,54,17.70
2016,04,19,12,55,17.70
2016,04,19,12,56,17.70
2016,04,19,12,57,17.70
2016,04,19,12,58,17.70
2016,04,19,12,59,17.80
2016,04,19,13,00,17.90
2016,04,19,13,01,17.90
2016,04,19,13,02,17.90
2016,04,19,13,03,18.00
2016,04,19,13,04,18.00
2016,04,19,13,05,18.10
2016,04,19,13,06,18.10
2016,04,19,13,07,18.20
2016,04,19,13,08,18.20
2016,04,19,13,09,18.20
2016,04,19,13,10,18.30
2016,04,19,13,11,18.30
2016,04,19,13,12,18.30
2016,04,19,13,13,18.20
2016,04,19,13,14,18.30
2016,04,19,13,15,18.30
2016,04,19,13,16,18.40
2016,04,19,13,17,18.40
2016,04,19,13,18,18.40
2016,04,19,13,19,18.30
2016,04,19,13,20,18.20
2016,04,19,13,21,18.20
2016,04,19,13,22,18.20
2016,04,19,13,23,18.20
2016,04,19,13,24,18.20
2016,04,19,13,25,18.10
2016,04,19,13,26,18.00
2016,04,19,13,27,18.00
2016,04,19,13,28,17.90
2016,04,19,13,29,17.90
2016,04,19,13,30,17.80
2016,04,19,13,31,17.80
2016,04,19,13,32,17.80
2016,04,19,13,33,17.90
2016,04,19,13,34,17.90
2016,04,19,13,35,18.00
2016,04,19,13,36,18.10
2016,04,19,13,37,18.10
2016,04,19,13,38,18.20
2016,04,19,13,39,18.20
2016,04,19,13,40,18.20
2016,04,19,13,41,18.20
2016,04,19,13,42,18.20
2016,04,19,13,43,18.30
2016,04,19,13,44,18.30
2016,04,19,13,45,18.30
2016,04,19,13,46,18.30
2016,04,19,13,47,18.30
2016,04,19,13,48,18.30
2016,04,19,13,49,18.20
2016,04,19,13,50,18.10
2016,04,19,13,51,18.00
2016,04,19,13,52,18.00
2016,04,19,13,53,18.00
2016,04,19,13,54,18.00
2016,04,19,13,55,18.10
2016,04,19,13,56,18.20
2016,04,19,13,57,18.20
2016,04,19,13,58,18.20
2016,04,19,13,59,18.20
2016,04,19,14,00,18.20
2016,04,19,14,01,18.20
2016,04,19,14,02,18.20
2016,04,19,14,03,18.20
2016,04,19,14,04,18.30
2016,04,19,14,05,18.40
2016,04,19,14,06,18.50
2016,04,19,14,07,18.60
2016,04,19,14,08,18.80
2016,04,19,14,09,18.90
2016,04,19,14,10,19.00
2016,04,19,14,11,19.10
2016,04,19,14,12,19.10
2016,04,19,14,13,19.10
2016,04,19,14,14,19.10
2016,04,19,14,15,19.20
2016,04,19,14,16,19.20
2016,04,19,14,17,19.30
2016,04,19,14,18,19.30
2016,04,19,14,19,19.40
2016,04,19,14,20,19.40
2016,04,19,14,21,19.40
2016,04,19,14,22,19.50
2016,04,19,14,23,19.50
2016,04,19,14,24,19.60
2016,04,19,14,25,19.70
2016,04,19,14,26,19.80
2016,04,19,14,27,19.80
2016,04,19,14,28,19.90
2016,04,19,14,29,19.90
2016,04,19,14,30,20.00
2016,04,19,14,31,20.10
2016,04,19,14,32,20.20
2016,04,19,14,33,20.20
2016,04,19,14,34,20.20
2016,04,19,14,35,20.30
2016,04,19,14,36,20.20
2016,04,19,14,37,20.10
2016,04,19,14,38,20.00
2016,04,19,14,39,19.90
2016,04,19,14,40,19.80
2016,04,19,14,41,19.70
2016,04,19,14,42,19.60
2016,04,19,14,43,19.60
2016,04,19,14,44,19.50
2016,04,19,14,45,19.50
2016,04,19,14,46,19.40
2016,04,19,14,47,19.40
2016,04,19,14,48,19.40
2016,04,19,14,49,19.40
2016,04,19,14,50,19.50
2016,04,19,14,51,19.50
2016,04,19,14,52,19.60
2016,04,19,14,53,19.60
2016,04,19,14,54,19.70
2016,04,19,14,55,19.70
2016,04,19,14,56,19.70
2016,04,19,14,57,19.60
2016,04,19,14,58,19.60
2016,04,19,14,59,19.60
2016,04,19,15,00,19.50
2016,04,19,15,01,19.50
2016,04,19,15,02,19.50
2016,04,19,15,03,19.40
2016,04,19,15,04,19.40
2016,04,19,15,05,19.40
2016,04,19,15,06,19.50
2016,04,19,15,07,19.60
2016,04,19,15,08,19.60
2016,04,19,15,09,19.70
2016,04,19,15,10,19.70
2016,04,19,15,11,19.80
2016,04,19,15,12,19.90
2016,04,19,15,13,19.90
2016,04,19,15,14,20.00
2016,04,19,15,15,20.00
2016,04,19,15,16,20.10
2016,04,19,15,17,20.10
2016,04,19,15,18,20.20
2016,04,19,15,19,20.30
2016,04,19,15,20,20.30
2016,04,19,15,21,20.40
2016,04,19,15,22,20.40
2016,04,19,15,23,20.30
2016,04,19,15,24,20.20
2016,04,19,15,25,20.20
2016,04,19,15,26,20.20
2016,04,19,15,27,20.20
2016,04,19,15,28,20.20
2016,04,19,15,29,20.20
2016,04,19,15,30,20.20
2016,04,19,15,31,20.30
2016,04,19,15,32,20.30
2016,04,19,15,33,20.40
2016,04,19,15,34,20.40
2016,04,19,15,35,20.30
2016,04,19,15,36,20.20
2016,04,19,15,37,20.20
2016,04,19,15,38,20.10
2016,04,19,15,39,20.00
2016,04,19,15,40,20.00
2016,04,19,15,41,20.00
2016,04,19,15,42,19.90
2016,04,19,15,43,19.90
2016,04,19,15,44,19.90
2016,04,19,15,45,20.00
2016,04,19,15,46,20.00
2016,04,19,15,47,20.00
2016,04,19,15,48,20.10
2016,04,19,15,49,20.10
2016,04,19,15,50,20.10
2016,04,19,15,51,20.20
2016,04,19,15,52,20.20
2016,04,19,15,53,20.20
2016,04,19,15,54,20.10
2016,04,19,15,55,20.10
2016,04,19,15,56,20.10
2016,04,19,15,57,20.10
2016,04,19,15,58,20.20
2016,04,19,15,59,20.10
2016,04,19,16,00,20.20
2016,04,19,16,01,20.20
2016,04,19,16,02,20.30
2016,04,19,16,03,20.40
2016,04,19,16,04,20.50
2016,04,19,16,05,20.60
2016,04,19,16,06,20.70
2016,04,19,16,07,20.80
2016,04,19,16,08,20.90
2016,04,19,16,09,20.90
2016,04,19,16,10,20.90
2016,04,19,16,11,20.90
2016,04,19,16,12,20.90
2016,04,19,16,13,21.00
2016,04,19,16,14,21.00
2016,04,19,16,15,21.00
2016,04,19,16,16,20.90
2016,04,19,16,17,20.90
2016,04,19,16,18,20.90
2016,04,19,16,19,20.90
2016,04,19,16,20,20.90
2016,04,19,16,21,21.00
2016,04,19,16,22,21.00
2016,04,19,16,23,21.10
2016,04,19,16,24,21.00
2016,04,19,16,25,21.00
2016,04,19,16,26,20.90
2016,04,19,16,27,20.90
2016,04,19,16,28,20.90
2016,04,19,16,29,20.80
2016,04,19,16,30,20.80
2016,04,19,16,31,20.80
2016,04,19,16,32,20.80
2016,04,19,16,33,20.70
2016,04,19,16,34,20.70
2016,04,19,16,35,20.60
2016,04,19,16,36,20.60
2016,04,19,16,37,20.60
2016,04,19,16,38,20.60
2016,04,19,16,39,20.60
2016,04,19,16,40,20.60
2016,04,19,16,41,20.60
2016,04,19,16,42,20.70
2016,04,19,16,43,20.70
2016,04,19,16,44,20.80
2016,04,19,16,45,20.80
2016,04,19,16,46,20.80
2016,04,19,16,47,20.80
2016,04,19,16,48,20.80
2016,04,19,16,49,20.90
2016,04,19,16,50,20.90
2016,04,19,16,51,20.90
2016,04,19,16,52,20.90
2016,04,19,16,53,20.90
2016,04,19,16,54,20.90
2016,04,19,16,55,20.90
2016,04,19,16,56,20.90
2016,04,19,16,57,21.00
2016,04,19,16,58,21.00
2016,04,19,16,59,21.00
2016,04,19,17,00,21.00
2016,04,19,17,01,20.90
2016,04,19,17,02,20.90
2016,04,19,17,03,20.90
2016,04,19,17,04,20.90
2016,04,19,17,05,20.90
2016,04,19,17,06,21.00
2016,04,19,17,07,21.00
2016,04,19,17,08,21.10
2016,04,19,17,09,21.10
2016,04,19,17,10,21.20
2016,04,19,17,11,21.20
2016,04,19,17,12,21.20
2016,04,19,17,13,21.30
2016,04,19,17,14,21.30
2016,04,19,17,15,21.40
2016,04,19,17,16,21.40
2016,04,19,17,17,21.40
2016,04,19,17,18,21.40
2016,04,19,17,19,21.40